Chievres, Belgium

4:16 PM CEST on August 16, 2017 (GMT +0200)
Chievres Air Base

Weather History for EBCV - September, 2013

Change the Weather History Date:

Thursday, September 19, 2013

  Actual Average Record
Temperature  
Mean Temperature 52 °F -  
Max Temperature 60 °F 57 °F 79 °F (2014)
Min Temperature 44 °F 47 °F 37 °F (2008)
Degree Days  
Heating Degree Days 13    
Growing Degree Days 2 (Base 50)    
Moisture  
Dew Point 47 °F    
Average Humidity 84    
Maximum Humidity 100    
Minimum Humidity 53    
Precipitation  
Precipitation 0.04 in - - ()
Sea Level Pressure  
Sea Level Pressure 29.88 in    
Wind  
Wind Speed 8 mph ()    
Max Wind Speed 17 mph    
Max Gust Speed 25 mph    
Visibility 5.4 miles    
Events Rain    
Averages and records for this station are not official NWS values.
T = Trace of Precipitation, MM = Missing Value Source: Averaged Metar Reports

Daily Weather History Graph

Daily Weather History Graph

Search for Another Location

Airport or City:

Trip Planner

Search our weather history database for the weather conditions in past years. The results will help you decide how hot, cold, wet, or windy it might be!

Date:

Astronomy

Sep. 19, 2013 Rise Set
Actual Time 7:26 AM CEST 7:49 PM CEST
Civil Twilight 6:53 AM CEST 8:22 PM CEST
Nautical Twilight 6:14 AM CEST 9:00 PM CEST
Astronomical Twilight 5:33 AM CEST 9:41 PM CEST
Moon 7:31 PM CEST (9/19) 7:22 AM CEST (9/19)
Length of Visible Light 13h 28m
Length of Day
12h 23m
Full, 100% of the Moon is Illuminated
Sep 19
Full
Sep 19
Full
Sep 27
Last Quarter
Oct 5
New
Oct 12
First Quarter

Hourly Weather History & Observations

Time (CEST) Temp. Windchill Dew Point Humidity Pressure Visibility Wind Dir Wind Speed Gust Speed Precip Events Conditions
12:11 AM 50.0 °F - 46.4 °F 87% 29.80 in 4.3 mi WSW 5.8 mph - N/A   Partly Cloudy
12:21 AM 50.0 °F - 46.4 °F 87% 29.80 in 6.2 mi WSW 5.8 mph - N/A   Scattered Clouds
12:25 AM 50.0 °F - 46.4 °F 87% 29.83 in 6.2 mi WSW 5.8 mph - N/A   Partly Cloudy
12:36 AM 50.0 °F - 46.4 °F 87% 29.83 in 4.3 mi WSW 6.9 mph - N/A   Partly Cloudy
1:07 AM 50.0 °F - 46.4 °F 87% 29.83 in 6.2 mi WSW 5.8 mph - N/A   Unknown
1:15 AM 50.0 °F - 46.4 °F 87% 29.83 in 4.3 mi WSW 5.8 mph - N/A   Unknown
1:25 AM 48.2 °F - 46.4 °F 93% 29.83 in 6.2 mi West 6.9 mph - N/A   Unknown
2:00 AM 48 °F - 45 °F 84% 29.86 in 7 mi West 4.5 mph - -   Clear
2:25 AM 48.2 °F - 44.6 °F 87% 29.86 in 6.2 mi West 5.8 mph - N/A   Unknown
2:46 AM 48.2 °F - 44.6 °F 87% 29.86 in 4.3 mi WSW 5.8 mph - N/A   Unknown
2:57 AM 46.4 °F 44.3 °F 44.6 °F 93% 29.86 in 6.2 mi WSW 4.6 mph - N/A   Unknown
3:06 AM 48.2 °F - 44.6 °F 87% 29.86 in 3.7 mi WSW 5.8 mph - N/A   Unknown
3:19 AM 48.2 °F - 44.6 °F 87% 29.86 in 5.0 mi WSW 6.9 mph - N/A   Unknown
3:25 AM 46.4 °F 43.5 °F 44.6 °F 93% 29.86 in 6.2 mi WSW 5.8 mph - N/A   Unknown
3:51 AM 46.4 °F 43.5 °F 44.6 °F 93% 29.86 in 4.3 mi WSW 5.8 mph - N/A   Unknown
4:04 AM 46.4 °F 43.5 °F 44.6 °F 93% 29.86 in 6.2 mi WSW 5.8 mph - N/A   Unknown
4:25 AM 44.6 °F 41.4 °F 42.8 °F 93% 29.89 in 6.2 mi SW 5.8 mph - N/A   Partly Cloudy
4:43 AM 46.4 °F 43.5 °F 44.6 °F 93% 29.89 in 4.3 mi SW 5.8 mph - N/A   Mostly Cloudy
4:53 AM 46.4 °F 44.3 °F 44.6 °F 93% 29.89 in 5.6 mi SW 4.6 mph - N/A   Mostly Cloudy
5:00 AM 46 °F - 44 °F 88% 29.90 in 8 mi SW 4.5 mph - -   Mostly Cloudy
5:17 AM 44.6 °F 42.2 °F 42.8 °F 93% 29.89 in 3.7 mi SSW 4.6 mph - N/A   Partly Cloudy
5:18 AM 44.6 °F 42.2 °F 42.8 °F 93% 29.89 in - SSW 4.6 mph - N/A   Partly Cloudy
5:25 AM 44.6 °F 42.2 °F 42.8 °F 93% 29.89 in 6.2 mi SSW 4.6 mph - N/A   Scattered Clouds
5:51 AM 44.6 °F 41.4 °F 44.6 °F 100% 29.89 in 4.3 mi WSW 5.8 mph - N/A   Mostly Cloudy
6:04 AM 44.6 °F 41.4 °F 42.8 °F 93% 29.89 in 6.2 mi SW 5.8 mph - N/A   Mostly Cloudy
6:05 AM 44.6 °F 41.4 °F 42.8 °F 93% 29.89 in 4.3 mi SW 5.8 mph - N/A   Mostly Cloudy
6:21 AM 46.4 °F 43.5 °F 44.6 °F 93% 29.89 in 5.0 mi WSW 5.8 mph - N/A   Mostly Cloudy
6:25 AM 46.4 °F 42.9 °F 44.6 °F 93% 29.89 in 6.2 mi WSW 6.9 mph - N/A   Scattered Clouds
6:35 AM 46.4 °F 42.9 °F 42.8 °F 87% 29.89 in 4.3 mi WSW 6.9 mph - N/A   Partly Cloudy
6:45 AM 46.4 °F 42.4 °F 42.8 °F 87% 29.89 in 5.6 mi WSW 8.1 mph - N/A   Partly Cloudy
6:50 AM 46.4 °F 42.4 °F 42.8 °F 87% 29.89 in 3.7 mi WSW 8.1 mph - N/A   Partly Cloudy
7:04 AM 44.6 °F 40.7 °F 42.8 °F 93% 29.89 in 6.2 mi WSW 6.9 mph - N/A   Unknown
7:09 AM 44.6 °F 40.7 °F 42.8 °F 93% 29.89 in 4.3 mi WSW 6.9 mph - N/A   Unknown
7:20 AM 44.6 °F 40.7 °F 42.8 °F 93% 29.92 in 5.0 mi WSW 6.9 mph - N/A   Unknown
7:22 AM 44.6 °F 40.7 °F 42.8 °F 93% 29.92 in 3.7 mi WSW 6.9 mph - N/A   Unknown
7:25 AM 44.6 °F 40.7 °F 42.8 °F 93% 29.92 in 6.2 mi WSW 6.9 mph - N/A   Unknown
7:40 AM 46.4 °F 42.9 °F 42.8 °F 87% 29.92 in 3.7 mi WSW 6.9 mph - N/A   Unknown
7:53 AM 44.6 °F 40.7 °F 42.8 °F 93% 29.92 in 5.6 mi WSW 6.9 mph - N/A   Unknown
8:00 AM 46 °F - 44 °F 89% 29.93 in 8 mi SW 6.7 mph - -  
8:25 AM 48.2 °F - 44.6 °F 87% 29.92 in 6.2 mi SW 5.8 mph - N/A   Partly Cloudy
8:39 AM 46.4 °F 43.5 °F 44.6 °F 93% 29.92 in 4.3 mi SW 5.8 mph - N/A   Unknown
8:49 AM 48.2 °F - 44.6 °F 87% 29.92 in 6.2 mi SW 6.9 mph - N/A   Unknown
9:18 AM 50.0 °F - 46.4 °F 87% 29.95 in 4.3 mi SW 8.1 mph - N/A   Scattered Clouds
9:25 AM 50.0 °F - 46.4 °F 87% 29.95 in 5.0 mi WSW 8.1 mph - N/A   Mostly Cloudy
9:41 AM 50.0 °F - 46.4 °F 87% 29.95 in 4.3 mi WSW 6.9 mph - N/A   Mostly Cloudy
10:04 AM 51.8 °F - 46.4 °F 82% 29.92 in 6.2 mi SW 8.1 mph - N/A   Mostly Cloudy
10:17 AM 51.8 °F - 46.4 °F 82% 29.95 in 3.1 mi WSW 6.9 mph - N/A   Mostly Cloudy
10:18 AM 51.8 °F - 46.4 °F 82% 29.95 in - WSW 6.9 mph - N/A   Mostly Cloudy
10:25 AM 51.8 °F - 48.2 °F 88% 29.95 in 6.2 mi SW 6.9 mph - N/A   Mostly Cloudy
10:36 AM 51.8 °F - 48.2 °F 88% 29.95 in 3.7 mi SW 6.9 mph - N/A   Mostly Cloudy
10:56 AM 53.6 °F - 48.2 °F 82% 29.95 in 6.2 mi SW 9.2 mph - N/A   Mostly Cloudy
11:00 AM 53 °F - 47 °F 73% 29.96 in 5 mi SW 8.9 mph - -   Scattered Clouds
11:25 AM 53.6 °F - 48.2 °F 82% 29.95 in 6.2 mi SW 8.1 mph - N/A   Mostly Cloudy
12:25 PM 57.2 °F - 48.2 °F 72% 29.95 in 6.2 mi WSW 10.4 mph - N/A   Mostly Cloudy
1:19 PM 57.2 °F - 46.4 °F 67% 29.92 in 4.3 mi SW 10.4 mph - N/A   Mostly Cloudy
1:25 PM 57.2 °F - 48.2 °F 72% 29.92 in 6.2 mi WSW 9.2 mph - N/A   Mostly Cloudy
2:00 PM 57 °F - 47 °F 60% 29.92 in 12 mi SW 8.9 mph - -   Scattered Clouds
2:11 PM 57.2 °F - 46.4 °F 67% 29.92 in 4.3 mi SW 10.4 mph - N/A   Mostly Cloudy
2:22 PM 57.2 °F - 46.4 °F 67% 29.92 in 6.2 mi SW 11.5 mph - N/A   Mostly Cloudy
2:25 PM 57.2 °F - 48.2 °F 72% 29.92 in 6.2 mi SW 10.4 mph - N/A   Mostly Cloudy
3:25 PM 59.0 °F - 48.2 °F 67% 29.89 in 6.2 mi SW 13.8 mph - N/A   Mostly Cloudy
3:48 PM 59.0 °F - 48.2 °F 67% 29.89 in 4.3 mi SW 16.1 mph - N/A   Mostly Cloudy
3:57 PM 59.0 °F - 48.2 °F 67% 29.89 in - SW 12.7 mph - N/A   Overcast
4:14 PM 59.0 °F - 48.2 °F 67% 29.89 in 5.6 mi SW 13.8 mph - N/A   Mostly Cloudy
4:15 PM 59.0 °F - 48.2 °F 67% 29.89 in 4.3 mi SW 13.8 mph - N/A   Mostly Cloudy
4:25 PM 60.8 °F - 48.2 °F 63% 29.89 in 6.2 mi SW 15.0 mph - N/A   Mostly Cloudy
4:36 PM 60.8 °F - 48.2 °F 63% 29.89 in 3.1 mi SW 12.7 mph - N/A   Mostly Cloudy
4:51 PM 60.8 °F - 48.2 °F 63% 29.89 in 6.2 mi SW 15.0 mph - N/A   Mostly Cloudy
5:00 PM 60 °F - 47 °F 53% 29.89 in 11 mi SW 13.4 mph - -   Scattered Clouds
5:25 PM 59.0 °F - 48.2 °F 67% 29.86 in 6.2 mi SSW 16.1 mph - N/A   Mostly Cloudy
5:34 PM 59.0 °F - 48.2 °F 67% 29.86 in 4.3 mi SSW 16.1 mph - N/A   Mostly Cloudy
5:45 PM 59.0 °F - 48.2 °F 67% 29.86 in 6.2 mi SSW 13.8 mph - N/A   Mostly Cloudy
5:53 PM 59.0 °F - 48.2 °F 67% 29.86 in 4.3 mi SSW 13.8 mph - N/A   Mostly Cloudy
6:07 PM 59.0 °F - 48.2 °F 67% 29.86 in 6.2 mi SSW 15.0 mph - N/A   Mostly Cloudy
6:25 PM 59.0 °F - 48.2 °F 67% 29.86 in 5.6 mi SSW 13.8 mph - N/A   Mostly Cloudy
6:49 PM 57.2 °F - 50.0 °F 77% 29.86 in 4.3 mi SSW 12.7 mph - N/A   Mostly Cloudy
7:04 PM 57.2 °F - 50.0 °F 77% 29.86 in 6.2 mi SSW 15.0 mph - N/A   Mostly Cloudy
7:06 PM 57.2 °F - 50.0 °F 77% 29.86 in 4.3 mi SSW 13.8 mph - N/A   Mostly Cloudy
7:17 PM 57.2 °F - 48.2 °F 72% 29.86 in 6.2 mi SSW 13.8 mph 25.3 mph N/A   Mostly Cloudy
7:21 PM 57.2 °F - 48.2 °F 72% 29.86 in 4.3 mi SW 12.7 mph 25.3 mph N/A   Mostly Cloudy
7:25 PM 57.2 °F - 48.2 °F 72% 29.86 in 6.2 mi SW 13.8 mph - N/A   Mostly Cloudy
7:37 PM 57.2 °F - 50.0 °F 77% 29.86 in 4.3 mi SW 15.0 mph - N/A   Mostly Cloudy
8:00 PM 55 °F - 51 °F 82% 29.86 in 6 mi SSW 8.9 mph - - Rain Light Rain
8:04 PM 55.4 °F - 51.8 °F 88% 29.86 in 6.2 mi SSW 10.4 mph - N/A   Overcast
8:15 PM 55.4 °F - 50.0 °F 82% 29.86 in 4.3 mi SSW 12.7 mph - N/A   Overcast
8:25 PM 55.4 °F - 50.0 °F 82% 29.86 in 6.2 mi SSW 12.7 mph - N/A   Mostly Cloudy
8:34 PM 55.4 °F - 51.8 °F 88% 29.86 in 3.1 mi SSW 12.7 mph - N/A   Mostly Cloudy
8:48 PM 53.6 °F - 51.8 °F 94% 29.86 in 6.2 mi SSW 12.7 mph - N/A   Mostly Cloudy
8:49 PM 53.6 °F - 51.8 °F 94% 29.86 in 2.5 mi SSW 11.5 mph - N/A   Mostly Cloudy
9:04 PM 53.6 °F - 51.8 °F 94% 29.86 in 6.2 mi SSW 12.7 mph - N/A   Overcast
9:06 PM 53.6 °F - 51.8 °F 94% 29.86 in 6.2 mi SSW 12.7 mph - N/A   Mostly Cloudy
9:25 PM 53.6 °F - 51.8 °F 94% 29.86 in 4.3 mi SSW 13.8 mph - N/A   Mostly Cloudy
9:39 PM 53.6 °F - 51.8 °F 94% 29.86 in - SSW 12.7 mph - N/A   Overcast
10:06 PM 53.6 °F - 51.8 °F 94% 29.86 in 3.7 mi SSW 12.7 mph - N/A   Mostly Cloudy
10:09 PM 53.6 °F - 53.6 °F 100% 29.86 in - SSW 12.7 mph - N/A   Mostly Cloudy
10:25 PM 53.6 °F - 51.8 °F 94% 29.86 in 4.3 mi SSW 13.8 mph - N/A   Mostly Cloudy
10:41 PM 53.6 °F - 53.6 °F 100% 29.86 in - SSW 15.0 mph - N/A   Mostly Cloudy
10:47 PM 53.6 °F - 53.6 °F 100% 29.86 in - SSW 16.1 mph - N/A   Mostly Cloudy
10:57 PM 53.6 °F - 53.6 °F 100% 29.86 in 6.2 mi SSW 16.1 mph - N/A   Mostly Cloudy
11:00 PM 54 °F - 53 °F 94% 29.86 in 6 mi SSW 15.7 mph - - Rain Light Rain
11:04 PM 53.6 °F - 51.8 °F 94% 29.86 in 6.2 mi SSW 17.3 mph - N/A   Mostly Cloudy
11:25 PM 53.6 °F - 53.6 °F 100% 29.86 in 3.7 mi SW 15.0 mph - N/A   Mostly Cloudy